Temp
93 79 74 81 83 82 84 80 68 72 76 79 76 70 70 73 73 71 70 69 68 70 74 76 76 75 73 72 72 72 70 68 69 71 72 72 70 71 72 69 72 73 71 69
88 81 83 87 86 86 81 77 65 66 80 79 78 72 70 71 71 75 74 73 73 77 77 77 75 75 73 73 73 70 69 68 68 69 69 72 70 72 72 72 72 72 71 69
82 87 92 88 86 76 72 74 73 75 83 82 77 63 57 63 76 76 77 77 77 78 73 77 75 74 73 74 70 71 70 68 68 70 69 70 70 70 70 69 69 70 71 71
86 92 88 86 82 81 73 85 82 79 75 68 76 61 57 62 68 72 75 75 77 75 72 73 71 68 73 70 72 64 67 64 67 67 65 67 66 65 67 69 69 70 70 68
82 86 84 82 83 85 79 85 81 80 75 73 70 54 54 56 61 68 72 75 77 76 75 75 72 69 71 69 71 68 62 60 62 63 64 64 65 68 70 69 67 67 66 67
87 95 89 84 86 87 86 81 81 79 75 60 59 51 52 54 64 68 72 74 76 77 76 76 73 74 72 75 74 68 63 61 61 60 63 66 65 66 66 66 63 63 65 65
82 83 88 85 75 85 82 75 64 62 62 59 62 59 53 66 71 72 72 73 75 75 76 77 74 78 77 73 74 70 74 67 62 63 66 66 64 65 64 64 62 64 64 65
72 68 80 85 80 76 77 75 65 52 56 61 73 52 49 66 71 74 75 76 76 75 75 74 74 76 76 75 75 74 73 70 70 68 64 65 65 63 62 63 65 64 63 63
71 70 81 84 85 83 76 69 78 66 68 62 59 56 63 69 70 73 74 75 71 73 74 74 75 76 76 75 75 75 73 70 69 69 63 60 58 61 60 63 61 61 65 64
78 68 82 81 84 85 78 81 66 68 54 52 59 54 51 56 65 70 70 70 72 74 75 76 76 76 75 75 75 73 72 71 71 70 66 62 62 62 64 63 62 58 62 63
82 74 74 81 76 74 75 72 72 70 65 55 49 49 67 66 69 69 69 70 71 73 74 75 75 75 76 76 76 73 72 71 71 68 68 66 64 61 64 64 63 63 60 58
78 72 65 72 80 81 77 72 70 60 58 63 61 55 72 70 69 69 69 69 72 73 74 74 75 75 74 75 74 73 71 71 71 71 68 65 64 63 63 63 64 63 62 64
75 70 61 67 71 75 71 74 72 70 67 59 55 49 71 70 67 68 67 70 72 73 73 73 73 73 72 72 71 71 71 69 69 67 66 65 63 62 61 62 63 63 62 62
72 70 65 61 66 72 68 71 72 68 59 61 61 59 62 65 65 67 68 70 72 72 72 72 72 73 73 72 70 70 69 69 68 67 64 62 63 61 60 61 63 59 58 57
74 65 70 72 72 73 71 70 70 66 67 60 64 64 63 66 67 70 71 71 70 71 71 71 71 72 73 70 70 70 69 69 67 63 65 59 63 63 60 61 61 59 58 59
75 64 68 65 73 71 68 71 69 69 68 67 67 63 70 72 73 70 69 70 69 69 70 71 72 71 70 69 68 65 66 63 64 64 62 64 62 62 59 59 55 56 57 59
70 67 64 60 69 68 61 69 70 70 72 69 61 64 70 68 67 67 68 69 68 69 70 70 70 68 68 67 66 65 65 63 64 63 64 62 62 62 61 58 56 55 56 59
69 67 66 61 65 51 66 76 74 69 70 72 70 70 70 68 70 72 73 70 69 70 69 68 69 68 66 67 67 66 65 63 61 59 63 61 62 61 60 57 56 56 58 56
75 69 63 57 58 63 65 69 68 64 64 73 70 70 70 70 70 69 72 72 70 69 68 68 68 68 66 66 64 63 62 59 58 58 60 63 61 60 59 57 54 55 56 57
74 72 59 57 50 51 57 71 75 73 59 69 69 67 67 68 60 61 70 72 70 69 68 66 67 67 65 62 63 61 61 60 59 61 62 64 61 59 57 57 57 56 55 57
63 59 57 46 48 55 70 73 75 57 55 68 69 68 67 63 64 68 71 69 69 68 67 67 66 64 59 62 61 59 59 57 59 62 61 61 63 59 59 57 57 57 58 59
64 58 63 62 57 49 73 72 61 63 69 69 69 70 67 68 69 70 69 67 67 66 66 66 65 63 61 61 59 56 55 59 60 61 59 59 59 62 60 57 57 57 57 57
59 60 63 64 60 69 73 68 71 71 69 69 70 70 68 67 67 68 66 66 65 65 64 66 64 60 60 60 59 57 57 59 58 56 56 57 59 59 60 56 56 55 55 53
68 74 66 67 67 70 71 72 73 73 72 72 72 71 70 65 66 65 65 64 63 64 64 65 61 59 57 59 59 57 57 56 57 56 55 56 56 57 59 60 56 53 54 55
74 72 69 68 68 71 72 73 73 73 73 72 73 72 69 67 66 65 64 63 63 63 64 63 60 57 58 59 57 59 59 57 55 56 55 55 57 55 57 56 55 54 54 53
69 65 67 63 71 70 71 74 75 72 72 72 70 69 68 67 65 66 64 64 62 62 63 62 58 59 59 60 59 59 58 58 55 53 55 55 54 56 55 55 54 44 45 42
MSLP
1003.46 1004.68 1005.61 1005.74 1005.88 1005.82 1005.17 1005.70 1007.40 1009.35 1007.99 1007.01 1007.38 1009.30 1011.03 1011.77 1012.80 1014.08 1014.87 1015.16 1015.55 1015.83 1016.34 1016.84 1017.52 1017.96 1018.10 1018.57 1018.94 1018.85 1019.35 1019.43 1019.51 1019.36 1018.96 1018.79 1019.00 1018.80 1018.50 1018.71 1018.93 1019.24 1019.26 1019.15
1003.11 1002.92 1004.13 1004.18 1004.25 1004.22 1004.89 1005.39 1006.89 1007.41 1007.15 1006.50 1006.87 1008.42 1011.41 1011.00 1012.55 1012.71 1013.78 1014.16 1014.41 1014.50 1015.05 1016.03 1016.59 1017.08 1017.34 1017.38 1017.80 1019.05 1019.58 1019.99 1019.73 1019.57 1018.94 1018.61 1018.74 1018.62 1018.46 1018.55 1018.58 1018.67 1019.00 1018.91
1002.93 1002.52 1002.73 1003.06 1003.10 1004.16 1005.13 1005.40 1005.24 1004.96 1004.72 1005.11 1006.47 1009.90 1011.20 1013.04 1011.86 1012.63 1013.03 1013.09 1013.49 1013.70 1014.66 1015.22 1016.15 1016.61 1017.29 1017.12 1017.73 1018.13 1018.57 1019.93 1019.47 1018.86 1019.00 1018.54 1018.44 1018.29 1018.29 1018.47 1018.47 1018.40 1018.33 1018.59
1002.72 1002.34 1002.40 1002.79 1002.91 1003.88 1004.41 1004.04 1004.14 1004.42 1004.54 1004.82 1006.72 1009.04 1012.92 1010.80 1012.03 1012.46 1012.79 1013.01 1013.02 1013.90 1014.91 1015.33 1016.83 1016.82 1017.52 1017.46 1017.94 1018.81 1019.38 1020.00 1019.61 1019.50 1019.43 1018.61 1018.26 1018.47 1018.22 1018.05 1018.17 1018.03 1018.04 1018.36
1002.69 1002.45 1002.46 1002.73 1003.06 1003.65 1003.77 1003.97 1004.17 1003.98 1004.35 1005.06 1006.63 1011.06 1013.66 1013.82 1013.09 1012.82 1013.00 1013.25 1013.21 1013.75 1014.46 1015.18 1016.14 1016.82 1016.96 1016.93 1017.43 1018.16 1018.70 1018.87 1018.95 1018.95 1018.85 1018.50 1018.26 1017.99 1017.85 1018.18 1018.25 1018.04 1017.94 1017.97
1003.02 1002.78 1002.98 1003.60 1004.11 1004.00 1004.21 1004.14 1003.78 1003.51 1003.53 1005.52 1008.42 1010.64 1013.12 1013.76 1012.93 1013.26 1013.66 1013.46 1013.35 1013.65 1014.34 1015.10 1015.66 1016.19 1016.40 1016.52 1017.05 1017.88 1018.67 1018.58 1018.23 1018.36 1018.62 1017.98 1018.33 1018.35 1018.19 1018.13 1018.19 1018.28 1017.82 1017.64
1003.12 1003.29 1003.74 1004.64 1005.75 1004.13 1003.74 1004.01 1003.59 1003.44 1004.06 1005.44 1008.21 1010.40 1012.66 1012.70 1013.09 1013.10 1013.62 1013.76 1013.66 1014.04 1014.53 1014.97 1015.38 1015.58 1015.72 1016.16 1016.53 1016.87 1017.08 1017.50 1017.94 1018.02 1017.63 1017.65 1017.53 1017.81 1018.25 1017.94 1017.96 1017.87 1017.84 1017.63
1003.18 1003.38 1004.37 1004.90 1005.00 1004.68 1004.68 1004.55 1004.38 1004.46 1005.00 1005.95 1007.46 1011.26 1013.84 1014.09 1013.55 1013.48 1013.63 1013.75 1013.82 1014.11 1014.79 1015.32 1015.85 1015.83 1016.17 1016.42 1016.56 1016.72 1016.73 1016.78 1016.78 1017.16 1017.48 1017.65 1016.10 1017.41 1017.71 1017.60 1017.21 1017.53 1017.49 1017.61
1004.01 1004.24 1004.80 1005.06 1004.94 1004.98 1004.66 1005.09 1005.34 1005.56 1006.18 1006.66 1008.84 1012.49 1013.78 1013.38 1013.56 1013.28 1013.44 1013.71 1014.48 1014.64 1014.97 1015.41 1015.78 1015.78 1016.02 1016.42 1016.32 1016.42 1016.71 1016.81 1016.83 1016.92 1017.04 1017.06 1018.03 1017.22 1017.43 1017.43 1017.25 1017.44 1017.42 1017.53
1004.67 1004.47 1004.02 1004.98 1005.09 1004.31 1005.08 1005.73 1005.73 1005.68 1006.24 1006.91 1008.04 1010.71 1012.77 1013.68 1013.29 1013.36 1013.77 1014.27 1014.56 1014.73 1014.83 1014.83 1015.20 1015.53 1015.88 1016.19 1016.39 1016.48 1016.61 1016.62 1016.50 1016.50 1017.04 1017.05 1016.87 1017.57 1017.20 1017.47 1017.13 1017.51 1017.18 1017.42
1005.23 1005.40 1004.94 1004.59 1004.54 1004.72 1005.24 1005.67 1006.06 1006.87 1007.58 1007.75 1009.02 1011.59 1011.82 1012.63 1012.98 1013.56 1014.29 1014.70 1014.96 1014.97 1015.01 1015.30 1015.61 1015.89 1015.97 1016.15 1016.19 1016.29 1016.42 1016.45 1016.32 1016.53 1016.76 1016.95 1017.19 1017.01 1016.55 1016.66 1016.85 1016.95 1017.09 1017.13
1006.78 1006.75 1006.14 1005.48 1005.54 1006.17 1006.40 1006.87 1007.44 1007.79 1008.09 1008.60 1009.20 1011.26 1012.48 1013.09 1013.96 1014.42 1014.83 1015.25 1015.17 1015.15 1015.39 1015.73 1015.83 1015.95 1016.05 1016.18 1016.24 1016.32 1016.43 1016.38 1016.20 1016.09 1016.06 1016.30 1016.39 1016.39 1016.23 1016.06 1016.14 1016.41 1016.56 1016.46
1007.88 1007.22 1006.89 1005.59 1006.26 1006.84 1006.88 1007.06 1007.97 1008.39 1008.91 1008.94 1009.54 1012.20 1012.56 1013.60 1014.56 1014.94 1015.18 1015.12 1015.06 1015.21 1015.47 1015.89 1016.01 1016.04 1016.30 1016.56 1016.70 1016.79 1016.75 1016.72 1016.69 1016.65 1016.58 1016.29 1016.18 1015.92 1015.81 1015.64 1015.70 1015.92 1016.08 1015.97
1008.89 1008.34 1007.90 1007.19 1006.78 1007.07 1007.01 1007.17 1007.99 1008.59 1009.05 1009.20 1010.04 1011.56 1012.92 1013.57 1014.13 1014.56 1014.96 1015.04 1015.16 1015.29 1015.47 1015.77 1015.94 1015.94 1016.15 1016.32 1016.72 1016.85 1016.92 1016.96 1016.90 1016.88 1016.71 1016.49 1016.29 1016.13 1015.68 1015.24 1015.42 1015.81 1015.73 1015.78
1008.95 1008.69 1008.06 1007.57 1007.67 1007.58 1007.52 1007.68 1008.11 1008.66 1009.21 1009.76 1010.15 1010.82 1012.28 1013.39 1013.75 1014.00 1014.58 1015.04 1015.24 1015.27 1015.56 1015.80 1015.91 1015.83 1015.94 1016.24 1016.54 1016.73 1016.89 1016.91 1017.09 1016.95 1016.58 1016.51 1015.97 1015.93 1015.61 1015.10 1015.32 1015.49 1015.55 1015.59
1009.20 1009.21 1008.82 1008.34 1007.77 1008.04 1007.88 1007.86 1008.53 1008.93 1009.26 1009.90 1010.47 1011.41 1012.61 1013.00 1013.20 1014.01 1014.74 1015.06 1015.26 1015.59 1015.88 1015.88 1015.76 1015.92 1016.27 1016.51 1016.80 1017.00 1017.14 1017.07 1017.34 1017.26 1016.60 1015.98 1015.81 1015.48 1015.27 1015.04 1014.94 1015.24 1015.12 1014.86
1009.32 1009.41 1009.14 1008.44 1008.39 1008.31 1008.04 1007.25 1007.93 1008.60 1009.07 1009.78 1010.71 1011.95 1012.68 1013.20 1014.00 1014.49 1014.86 1015.23 1015.57 1015.88 1015.95 1015.87 1016.08 1016.32 1016.66 1016.90 1017.09 1017.15 1017.21 1016.85 1016.90 1016.63 1016.34 1016.03 1015.64 1015.11 1015.02 1014.90 1014.98 1014.86 1014.83 1014.27
1009.33 1009.50 1009.58 1009.11 1008.72 1008.45 1008.34 1008.20 1008.49 1009.19 1009.80 1010.36 1011.07 1011.86 1012.93 1013.73 1014.29 1014.51 1014.85 1015.33 1015.76 1015.95 1016.11 1016.38 1016.63 1016.83 1017.03 1017.18 1017.30 1017.35 1017.37 1017.35 1017.11 1016.79 1016.23 1016.02 1015.62 1015.35 1015.00 1014.97 1014.81 1014.65 1014.47 1014.10
1009.40 1009.69 1009.81 1010.06 1009.25 1008.88 1009.03 1009.39 1009.39 1009.75 1010.37 1010.62 1011.26 1012.34 1013.30 1013.89 1014.38 1014.47 1015.32 1015.71 1015.99 1016.33 1016.74 1017.05 1017.24 1017.36 1017.36 1017.51 1017.87 1017.86 1017.74 1017.58 1017.45 1017.00 1016.35 1015.89 1015.86 1015.53 1015.09 1014.89 1014.78 1014.58 1014.42 1013.94
1009.81 1010.15 1011.39 1011.09 1011.04 1009.73 1010.08 1009.35 1010.64 1010.33 1010.78 1012.08 1012.62 1013.34 1013.86 1014.41 1014.52 1015.48 1015.90 1015.93 1016.37 1016.89 1017.24 1017.49 1017.66 1017.66 1017.76 1018.26 1018.36 1018.25 1017.88 1017.81 1017.66 1016.96 1016.38 1015.91 1015.65 1015.57 1015.21 1014.85 1014.48 1014.31 1014.19 1013.90
1009.67 1010.31 1010.84 1010.86 1010.85 1010.99 1010.84 1010.94 1010.90 1011.01 1012.97 1013.05 1013.60 1014.05 1014.53 1015.05 1015.54 1015.81 1015.83 1016.25 1016.81 1017.25 1017.60 1017.86 1017.88 1017.92 1018.53 1018.65 1018.51 1018.29 1018.22 1018.17 1017.86 1017.21 1016.85 1016.23 1015.38 1015.27 1014.93 1014.73 1014.16 1013.76 1013.66 1013.47
1009.12 1010.55 1009.66 1010.08 1010.41 1011.54 1011.72 1011.49 1011.97 1013.17 1013.39 1013.67 1014.10 1014.41 1014.95 1015.43 1015.83 1015.99 1016.34 1016.82 1017.27 1017.66 1017.85 1018.01 1018.04 1018.19 1018.74 1018.73 1018.76 1018.84 1018.67 1018.45 1017.98 1017.43 1016.92 1016.39 1015.82 1015.15 1014.97 1014.77 1014.27 1013.66 1013.46 1013.52
1010.01 1011.04 1010.61 1010.79 1011.38 1012.01 1012.22 1012.77 1013.42 1013.63 1013.74 1014.07 1014.43 1014.90 1015.52 1015.82 1016.11 1016.53 1016.94 1017.29 1017.65 1017.98 1018.14 1018.03 1018.20 1018.61 1018.96 1019.06 1019.13 1018.96 1018.79 1018.59 1018.15 1017.72 1017.09 1016.68 1015.87 1015.57 1015.03 1014.80 1014.36 1014.11 1013.88 1013.91
1010.24 1010.52 1010.57 1010.73 1011.47 1011.75 1012.44 1013.20 1013.61 1013.85 1014.01 1014.44 1014.81 1015.15 1015.59 1016.27 1016.77 1017.14 1017.41 1017.72 1018.00 1018.31 1018.27 1018.21 1018.70 1018.89 1019.18 1019.35 1019.24 1019.38 1019.20 1018.90 1018.35 1017.81 1017.32 1016.73 1016.15 1015.57 1015.02 1014.74 1014.66 1014.65 1014.22 1014.06
1009.60 1010.28 1010.30 1010.56 1011.27 1012.10 1012.47 1012.97 1013.34 1013.94 1014.43 1014.78 1014.83 1015.29 1015.95 1016.50 1016.92 1017.38 1017.72 1018.03 1018.39 1018.50 1018.50 1018.57 1018.96 1019.32 1019.24 1019.16 1019.44 1019.21 1018.87 1018.75 1018.36 1017.79 1017.44 1016.94 1016.39 1015.98 1015.30 1014.89 1014.74 1014.92 1014.61 1014.63
1011.44 1011.65 1011.14 1011.34 1011.87 1012.18 1012.47 1013.06 1013.54 1014.08 1014.41 1014.82 1015.33 1015.85 1016.40 1016.95 1017.34 1017.65 1017.96 1018.34 1018.64 1018.62 1018.57 1018.73 1019.13 1019.21 1019.22 1018.97 1019.01 1018.92 1018.75 1018.44 1018.23 1017.91 1017.46 1017.15 1016.73 1016.27 1015.63 1015.08 1014.75 1014.79 1014.92 1014.93
Wind_Speed
16 12 11 8 17 20 12 11 13 13 11 7 6 17 15 14 8 6 11 15 14 10 13 16 15 13 10 9 12 8 7 6 4 6 3 3 4 4 3 4 4 1 3 6
11 13 9 8 20 8 20 12 6 16 23 7 9 10 8 14 11 6 7 9 7 8 5 11 14 14 15 15 10 9 9 7 5 6 4 2 2 4 3 3 1 2 4 6
13 13 6 9 8 17 14 25 7 13 16 16 4 8 11 12 11 8 7 11 8 5 7 8 12 14 8 9 9 13 9 8 10 11 5 4 4 4 1 2 3 5 2 6
10 15 2 10 4 6 11 14 18 20 18 15 8 7 5 5 8 5 8 4 6 3 8 8 4 6 6 7 7 3 7 7 12 7 8 6 3 5 4 2 3 1 4 6
14 15 10 13 12 10 15 16 18 19 14 19 1 8 1 3 7 7 7 9 9 8 9 5 6 5 6 6 4 8 6 7 11 10 11 8 6 3 2 3 5 4 5 6
19 19 5 7 18 15 11 14 19 21 12 11 10 10 10 5 8 10 6 9 10 11 13 10 9 5 4 2 2 6 10 10 10 10 16 8 8 5 5 4 4 5 4 3
18 15 7 8 13 24 4 15 13 13 10 7 15 4 6 9 9 9 7 6 8 12 7 3 7 9 6 3 4 3 6 8 14 14 9 11 11 8 7 6 5 4 2 1
13 14 5 13 17 9 14 13 9 17 12 16 7 8 2 10 7 7 4 8 7 12 13 12 11 10 11 13 12 13 13 13 3 6 8 15 3 4 4 8 3 4 2 3
11 12 10 10 6 9 10 11 16 11 15 16 6 7 10 7 6 6 5 5 13 9 7 6 7 7 7 7 9 5 8 7 7 6 2 6 7 6 8 3 3 6 3 4
7 14 6 12 8 14 3 6 8 6 10 13 3 6 8 11 5 2 6 8 4 4 7 7 8 10 9 10 9 9 9 9 11 4 2 5 4 6 6 5 4 7 3 7
9 6 11 7 6 6 8 10 9 7 9 11 6 3 11 7 5 7 10 8 8 7 9 11 9 9 9 8 9 7 8 11 10 8 8 5 5 6 9 5 6 6 4 10
5 4 8 15 11 9 5 6 6 6 9 12 11 6 8 10 11 8 7 1 8 8 9 9 9 10 10 12 11 11 9 10 11 11 7 7 8 10 9 7 7 7 8 5
10 4 9 11 8 5 5 4 3 6 6 11 6 3 8 11 6 4 5 7 7 8 6 7 8 9 9 9 10 11 11 12 13 13 14 9 9 8 9 9 7 6 6 8
5 5 9 10 10 5 6 4 4 3 7 10 9 13 7 4 2 1 2 3 7 7 6 7 8 8 8 5 7 8 8 8 9 10 10 10 10 11 11 9 6 5 4 5
5 7 7 10 7 7 7 5 5 6 9 5 13 7 10 4 5 4 6 6 7 7 9 10 11 10 10 8 6 7 7 8 8 9 10 8 8 10 11 7 5 5 5 8
2 6 5 11 8 5 9 7 3 8 3 8 9 5 7 3 1 5 6 6 8 10 11 12 12 13 12 10 11 9 8 7 8 13 10 9 8 8 9 6 3 6 10 11
2 5 7 8 6 7 9 7 7 4 5 4 6 6 7 7 9 7 3 4 8 10 12 12 12 9 8 8 7 8 9 6 8 10 8 11 11 11 11 6 6 8 11 11
5 3 7 8 10 10 7 5 6 4 4 4 4 4 6 4 4 4 4 6 8 11 13 13 13 12 8 9 9 9 10 11 11 11 10 10 10 12 11 4 7 6 8 5
4 7 6 6 11 6 7 4 1 5 7 8 3 8 7 5 7 1 8 9 10 13 12 11 11 12 9 10 11 11 10 9 7 8 10 11 12 13 11 5 4 6 9 9
12 6 6 16 4 10 10 5 3 2 2 10 8 5 5 6 4 8 8 9 12 12 10 9 11 10 10 11 10 11 10 10 12 14 13 13 7 11 12 10 6 6 6 9
4 4 8 3 9 6 5 5 3 6 6 5 5 4 4 3 6 9 10 12 11 10 10 10 10 8 10 9 8 9 11 12 12 13 15 16 10 8 10 9 8 6 6 7
6 6 9 5 7 2 1 5 6 5 3 3 3 3 4 6 7 8 10 10 10 10 11 10 8 8 7 9 10 9 9 11 12 12 12 13 12 11 8 10 9 10 4 6
3 11 8 5 5 4 9 9 6 3 3 3 3 7 4 5 8 10 9 8 8 9 9 8 9 9 9 9 9 11 10 12 12 13 13 13 10 9 10 7 9 8 3 2
6 2 2 7 7 5 7 5 4 2 4 4 2 1 5 7 8 8 8 6 7 8 9 10 9 8 8 7 9 10 10 10 11 11 12 11 10 11 9 7 5 7 4 3
8 3 4 7 8 3 6 4 4 4 3 2 2 6 4 6 7 7 6 6 6 7 8 9 7 7 8 7 10 9 9 8 9 10 8 10 10 9 10 4 1 5 4 4
9 5 7 4 5 3 4 4 4 0 0 5 7 7 9 7 6 6 5 5 6 7 7 8 5 6 9 8 7 7 8 9 9 9 8 7 8 10 8 9 5 5 3 3
Wind_Direction
246 155 182 315 256 247 309 11 52 329 269 260 124 161 158 150 169 198 176 179 194 202 199 196 202 219 202 221 219 206 226 235 242 261 303 344 359 300 296 98 80 56 267 263
255 264 159 224 259 268 3 359 114 229 248 231 292 145 161 143 176 186 187 179 205 199 168 187 204 205 212 220 199 208 234 237 244 248 243 226 257 282 272 339 23 301 295 288
275 286 182 258 341 34 35 291 282 288 313 229 131 110 130 204 174 183 150 143 190 208 171 218 200 207 254 240 217 217 214 240 241 245 278 245 233 289 77 261 254 249 257 282
309 294 301 280 3 8 263 315 336 321 313 305 173 302 41 7 119 105 95 172 194 43 96 124 106 52 310 269 323 268 252 305 275 292 280 257 252 278 264 250 271 280 269 284
281 289 320 327 346 346 320 339 307 288 285 292 147 47 45 259 142 141 109 90 94 115 122 128 119 132 134 161 195 190 134 202 158 227 246 255 243 340 277 235 281 294 265 241
286 287 262 6 340 302 314 303 300 287 250 274 144 142 186 189 159 120 102 76 51 35 66 57 118 154 226 313 298 163 156 170 182 216 242 228 259 265 278 294 305 296 284 214
253 301 335 39 337 293 292 304 315 320 314 284 177 157 183 156 85 94 105 91 83 79 70 62 49 354 40 113 231 241 218 188 206 228 229 229 207 222 251 257 251 248 279 298
304 313 356 293 242 307 302 311 315 307 309 323 281 81 140 37 125 120 124 96 74 56 47 23 16 5 7 0 358 8 6 358 265 222 275 295 91 353 281 250 267 299 336 294
313 292 232 240 303 310 329 305 340 304 288 276 107 101 174 161 143 170 109 82 75 44 42 31 348 352 336 333 322 5 356 338 337 327 0 103 236 211 259 319 26 312 320 285
296 298 300 165 218 277 196 316 311 300 297 297 175 138 155 207 166 105 91 70 56 37 344 360 350 12 15 13 351 14 360 343 333 293 301 305 238 261 277 263 223 230 281 283
310 316 300 266 307 338 322 320 331 340 290 299 351 97 153 139 97 75 64 42 16 344 357 9 9 357 354 343 340 349 0 341 337 31 6 351 315 279 260 253 229 227 208 247
69 328 295 295 84 37 346 337 345 317 317 322 305 90 89 83 70 33 77 24 351 337 359 11 354 345 3 349 346 356 357 339 346 347 342 4 346 328 303 279 266 263 264 267
356 331 315 286 60 2 292 44 312 300 278 274 349 307 157 87 74 64 357 347 316 21 347 352 350 349 0 354 5 352 349 2 4 348 351 339 333 318 297 279 275 274 304 301
322 299 270 286 358 4 258 165 307 268 276 344 52 131 122 117 57 194 339 316 351 341 2 342 336 341 339 357 359 340 359 351 340 337 333 337 324 323 305 274 253 267 277 300
4 287 324 294 339 319 329 312 324 345 326 327 335 351 135 141 6 9 33 353 339 331 356 349 331 328 337 10 2 340 342 343 352 336 318 322 320 316 320 304 255 269 280 256
53 296 319 300 255 268 300 290 237 262 241 321 326 64 31 339 309 30 3 346 346 355 344 320 336 344 356 355 7 20 2 1 342 316 324 320 329 328 311 289 244 261 276 271
286 327 301 313 1 300 268 286 194 302 322 356 323 32 360 7 6 352 317 331 0 343 323 339 343 2 6 3 352 343 323 314 322 325 329 323 332 338 333 319 258 256 262 275
265 271 288 299 248 273 18 66 55 49 318 317 283 82 15 24 313 306 31 2 341 330 357 1 356 0 13 359 352 355 355 343 347 332 340 339 354 342 339 340 333 323 307 292
220 278 297 269 283 246 187 148 51 45 334 325 283 55 5 17 301 315 38 3 349 12 7 2 355 339 3 5 18 6 353 350 350 330 327 333 352 335 332 325 299 298 310 320
287 224 53 306 260 285 52 46 54 317 55 50 49 6 11 8 293 90 358 358 14 14 6 359 342 347 11 29 10 355 354 350 346 336 336 329 349 338 328 323 273 269 292 293
181 231 221 171 262 71 8 53 307 290 73 68 31 9 17 334 13 347 338 17 12 11 357 351 355 350 61 17 351 347 358 359 345 332 347 340 336 336 333 340 319 295 270 278
329 347 300 341 343 50 328 282 356 89 120 35 68 49 26 13 335 343 5 12 7 355 359 347 341 21 41 10 33 21 1 342 338 332 328 327 340 327 339 336 331 332 304 330
359 1 332 11 18 102 50 74 70 48 63 88 40 57 10 328 1 358 5 1 8 358 345 343 1 29 18 20 13 354 3 340 338 337 336 333 331 347 332 338 348 337 23 353
108 159 351 288 128 119 109 105 102 20 88 94 74 262 47 24 3 354 351 4 9 350 341 2 26 17 10 7 10 6 350 336 339 342 336 327 341 335 332 331 12 337 332 20
342 171 26 342 80 88 170 167 149 150 131 263 258 72 38 20 9 352 345 12 4 345 352 4 23 28 345 13 5 324 334 336 330 332 347 348 337 342 312 325 38 318 12 39
344 347 354 11 21 296 72 159 139 206 311 49 32 19 30 13 2 352 352 1 6 330 352 359 51 360 330 354 343 336 332 331 327 336 347 340 343 342 343 326 336 92 93 117